Dewpoint
57 57 57 57 58 58 58 58 59 59 59 59 59 59 60 60 59 53 36 45 49 71 62 43 46 45 46 41 47 51 51 42 43 38 34 33 36 41 42 42 46 49 53 58 60
56 56 57 57 57 58 58 58 58 58 58 58 59 59 60 60 48 40 57 68 68 67 21 20 27 28 36 35 42 44 52 42 39 36 34 36 39 39 44 44 47 53 57 58 60
55 56 56 56 56 57 57 58 58 58 58 58 59 59 60 58 42 30 67 67 65 58 17 27 26 29 31 34 48 49 44 41 39 33 39 45 43 41 43 42 46 52 57 59 60
55 55 55 55 56 56 57 57 58 57 58 58 59 59 60 49 34 29 68 66 65 33 27 27 27 29 31 31 39 42 40 33 26 29 35 44 45 37 37 42 45 53 57 58 59
55 55 55 55 56 56 56 57 57 57 57 58 59 60 42 37 29 32 68 60 32 31 28 25 26 29 31 33 38 31 33 24 25 28 32 37 39 39 40 45 49 53 55 57 58
54 55 55 56 56 56 56 57 56 56 57 58 59 60 46 23 29 33 32 27 30 29 22 22 25 27 30 30 35 33 32 24 24 27 28 33 48 49 53 46 50 53 54 55 56
54 54 55 55 55 56 56 56 56 56 57 58 60 51 30 17 12 26 28 19 20 22 20 21 24 26 29 32 33 31 26 23 22 25 26 40 46 47 58 51 49 52 53 54 57
54 54 54 55 55 55 55 55 55 56 58 60 61 45 26 16 15 10 25 23 19 21 22 26 27 25 26 31 31 28 27 30 31 28 23 28 41 42 51 50 48 51 53 54 57
54 54 54 55 55 55 54 54 55 56 59 60 50 41 25 36 8 2 10 18 17 19 21 19 24 24 26 28 28 25 25 31 32 33 25 29 40 46 51 51 49 51 53 54 56
53 54 54 54 54 54 53 54 55 54 51 47 41 29 22 8 6 15 17 18 19 20 18 19 16 19 24 26 24 34 35 35 33 32 20 20 36 40 46 47 47 51 54 55 56
53 53 53 54 54 53 48 34 34 39 30 24 20 14 10 10 18 14 14 17 17 18 18 17 10 13 22 26 25 35 34 36 37 37 18 17 22 29 33 32 38 51 56 55 57
52 53 53 53 53 52 48 37 26 23 21 21 19 11 12 15 12 12 13 16 15 13 15 12 9 12 16 21 22 25 31 33 35 29 18 19 23 23 31 32 32 42 54 54 54
53 53 53 53 52 45 30 27 25 22 19 12 6 5 4 7 7 6 13 15 14 12 10 10 10 10 10 16 20 24 23 22 21 20 19 18 23 26 32 28 30 30 47 55 55
53 53 53 51 44 31 18 29 22 24 17 9 6 5 3 2 4 7 12 13 13 12 12 9 8 8 7 12 18 24 20 21 20 20 15 22 22 35 36 33 30 32 34 46 55
52 52 52 51 39 27 30 24 22 25 12 6 6 5 1 5 5 5 10 14 14 12 12 11 7 5 10 11 11 17 19 17 18 18 17 19 24 31 33 40 24 35 40 41 56
52 52 51 43 45 30 20 21 24 19 12 6 5 5 3 3 3 7 6 15 16 14 15 10 9 4 5 7 9 14 13 19 18 14 16 21 16 27 38 35 33 40 42 43 52
51 51 49 42 28 24 20 23 18 14 11 9 4 4 2 2 2 7 12 15 13 18 19 16 10 11 9 5 7 9 14 18 18 15 14 22 15 29 31 34 34 40 44 46 52
50 50 47 35 24 25 25 22 20 12 10 9 6 4 3 1 5 3 13 14 14 14 13 15 11 6 12 10 14 16 15 17 24 18 25 36 31 29 36 35 37 35 38 46 51
49 42 36 37 30 26 24 19 18 17 10 8 7 7 8 5 2 5 8 10 12 14 20 13 13 8 8 9 11 18 16 14 18 18 15 33 33 32 31 33 36 41 44 49 50
45 36 31 29 29 27 23 24 16 12 12 12 11 10 9 8 6 7 10 9 9 12 15 18 18 14 9 10 13 14 18 17 16 25 24 17 31 35 37 36 44 47 51 55 54
41 34 30 22 24 23 19 21 18 16 15 13 12 12 10 9 10 9 8 8 8 8 14 13 19 19 13 14 15 16 17 25 18 20 24 33 37 46 47 47 47 51 54 56 55
38 28 29 20 15 17 19 22 27 16 14 13 11 14 16 14 16 15 11 9 8 8 12 16 15 18 17 14 17 16 19 22 20 32 26 35 33 40 46 48 49 49 53 54 54
42 30 28 19 12 12 17 18 19 18 17 10 8 10 14 17 22 19 18 14 12 9 15 22 18 15 20 17 20 19 16 21 27 36 34 28 30 38 41 42 49 52 54 57 58
44 22 22 21 20 24 23 19 20 18 16 13 11 11 13 17 22 23 21 17 18 14 50 35 26 28 11 21 19 23 19 19 25 28 28 22 34 45 48 49 54 55 58 57 60
41 32 31 18 14 20 24 21 19 17 16 17 16 12 14 19 19 18 18 20 20 40 26 28 36 25 20 17 16 18 18 19 19 21 22 24 40 48 49 51 53 55 56 56 58
39 34 33 30 34 21 31 26 23 20 19 21 18 16 14 19 21 22 18 27 28 30 26 26 33 28 23 19 16 15 16 21 19 20 20 25 43 50 52 51 52 53 54 53 56
35 36 35 35 30 26 24 23 25 23 24 24 24 22 19 22 22 24 26 30 36 38 42 38 33 37 26 22 20 19 18 16 20 24 23 25 43 49 48 45 49 56 53 53 55
Lifted_Index
12 12 12 12 11 12 12 13 13 13 13 13 12 12 11 10 9 8 7 6 6 6 5 4 3 2 1 0 -1 -1 -1 -0 -0 -0 -0 0 0 0 0 0 -0 -2 -3 -3 -3
12 12 12 12 11 12 12 13 13 13 13 12 12 11 11 9 8 7 7 7 6 6 5 5 4 3 2 1 -1 -1 -0 -0 -0 -0 -1 -0 -0 -0 -0 -0 -1 -2 -3 -3 -4
12 12 12 12 12 12 12 12 12 12 12 12 11 11 10 8 7 6 7 8 7 7 6 5 5 4 2 1 -0 -1 -0 -0 -0 -0 -1 -1 -1 -1 -1 -0 -1 -2 -3 -4 -4
12 12 12 12 11 11 12 12 12 11 11 11 10 10 9 7 6 6 8 8 8 7 6 5 5 3 2 1 -0 -1 -0 -0 -0 0 -0 -1 -1 -1 -1 -1 -1 -2 -3 -4 -4
12 12 12 11 11 11 11 11 11 11 10 10 10 9 8 6 6 7 8 8 8 7 6 5 4 3 2 1 -0 -1 -1 -1 -0 0 0 -1 -1 -1 -1 -1 -1 -2 -3 -3 -4
12 12 12 11 11 10 10 10 10 10 10 10 9 9 7 6 6 7 8 8 8 7 6 5 4 3 2 0 -0 -0 -0 -1 -0 0 0 -0 -1 -1 -2 -2 -2 -2 -2 -3 -3
12 12 12 11 11 10 10 10 9 9 9 9 9 8 7 6 6 7 7 7 7 6 5 5 4 3 2 0 -0 -0 -0 -1 -1 -0 -0 -0 -0 -1 -1 -2 -2 -2 -2 -3 -3
12 12 12 11 11 10 9 9 9 9 9 8 7 7 6 6 6 6 7 6 6 6 6 5 4 3 2 0 -0 -0 -0 -0 -0 -0 -1 -1 -0 -0 -1 -1 -2 -3 -3 -3 -3
12 12 12 11 11 10 9 9 8 8 8 7 6 5 5 5 6 6 6 6 5 5 5 5 4 3 2 1 -0 -0 -0 -0 0 -0 -0 -0 -0 -0 -0 -1 -2 -3 -3 -3 -3
13 12 12 11 11 10 9 8 7 7 6 6 5 5 5 5 5 5 5 5 5 5 5 4 4 3 2 0 -0 -0 0 0 0 0 -0 -0 -0 -0 -0 -1 -2 -3 -3 -3 -3
13 13 12 12 11 10 8 7 6 5 5 4 4 4 4 4 5 5 5 5 5 4 4 4 3 2 1 0 -0 -0 0 0 0 0 -0 -0 -0 -1 -0 -1 -2 -3 -3 -3 -3
14 13 13 12 11 10 8 6 6 5 4 4 4 3 4 4 4 4 4 4 4 4 3 3 2 1 0 -0 -1 -0 -0 -0 -0 -0 -0 -0 -0 -1 -1 -1 -1 -2 -3 -3 -4
14 14 13 12 10 9 8 7 6 6 4 3 3 3 3 4 4 4 4 4 3 3 2 2 1 0 -0 -0 -1 -1 -1 -1 -1 -1 -0 -0 -0 -1 -1 -0 -0 -1 -2 -3 -4
14 14 13 12 10 8 7 7 7 6 3 2 2 3 3 3 3 3 3 3 3 2 2 1 0 -0 -0 -0 -0 -1 -1 -1 -1 -1 -1 -1 -1 -1 -0 -0 -0 -0 -1 -3 -4
14 14 13 11 9 8 7 7 7 5 2 1 1 2 3 2 2 2 3 3 3 2 2 1 0 -0 0 0 0 -0 -1 -1 -1 -1 -1 -1 -1 -0 0 0 -1 -1 -1 -2 -4
14 14 13 11 9 8 8 7 5 3 1 0 1 2 2 2 2 2 2 3 2 2 2 1 1 0 1 1 0 -0 -1 -1 -1 -1 -1 -1 -1 -0 0 0 -0 -1 -1 -2 -3
14 13 12 11 9 8 8 6 4 2 1 0 0 1 1 1 1 1 2 2 2 2 1 1 1 1 1 1 0 -0 -1 -1 -1 -1 -1 -1 -1 -0 0 1 1 -0 -1 -2 -3
13 12 11 10 10 9 7 5 3 2 1 0 -0 -0 0 0 1 1 1 1 2 1 1 0 0 1 1 1 0 -0 -0 -1 -1 -1 -1 -0 -0 0 1 1 1 0 -1 -2 -3
11 10 9 9 9 8 7 4 3 2 1 0 -0 -0 -0 -0 -0 -0 0 0 1 1 0 -0 -0 -0 0 1 0 0 -0 -0 -1 -1 -1 -0 -0 0 1 1 1 -0 -1 -3 -3
9 7 7 7 8 7 6 4 3 2 1 1 0 0 -0 -1 -1 -1 -0 -0 -0 -0 0 -0 -0 -1 -0 -0 0 -0 -0 -0 -1 -1 -1 -1 -0 1 0 -0 -1 -2 -3 -4 -4
7 6 6 7 7 6 5 4 3 2 3 3 2 1 0 -0 -0 -1 -1 -1 -0 -1 -0 -0 -0 -0 -1 -1 -0 -0 -1 -1 -1 -1 -1 -1 -0 1 0 -1 -2 -3 -4 -5 -5
5 4 5 6 6 5 4 3 3 3 3 4 3 2 1 0 -0 -0 -0 -0 -0 -1 -1 -0 -0 -0 -0 -1 -1 -0 -0 -1 -1 -1 -1 -1 -0 1 0 -2 -3 -4 -4 -5 -5
3 3 5 6 5 4 4 3 3 3 4 4 3 3 2 1 1 0 0 -0 0 -0 -0 0 0 -0 -0 -1 -1 -0 -0 -0 -0 -0 -0 -1 -0 0 -0 -2 -4 -5 -5 -6 -6
2 3 4 5 5 4 3 3 3 4 4 4 4 3 3 2 2 1 1 0 0 1 1 1 0 0 -0 -0 -0 -0 -0 -0 -0 -0 -0 -1 -1 -1 -1 -2 -4 -5 -6 -6 -6
2 2 3 4 4 4 3 3 3 3 4 4 4 4 3 3 3 2 1 1 0 1 1 1 1 1 1 0 -0 -1 -1 -1 -0 -0 -0 -0 -1 -1 -1 -1 -3 -5 -5 -5 -6
3 3 3 3 3 3 3 3 3 3 3 4 4 4 3 3 3 2 1 1 0 -0 1 1 1 1 1 1 0 -0 -1 -1 -1 -0 -0 -0 -1 -1 0 0 -2 -4 -5 -5 -5
4 4 4 3 3 3 3 2 2 3 3 3 3 3 3 3 2 2 1 1 -0 -1 -1 1 1 2 2 1 0 -0 -1 -1 -1 -1 -1 -0 -0 -0 1 1 -2 -4 -5 -5 -5